TimeEST,TemperatureF,Dew PointF,Humidity,Sea Level PressureIn,VisibilityMPH,Wind Direction,Wind SpeedMPH,Gust SpeedMPH,PrecipitationIn,Events,Conditions,WindDirDegrees,DateUTC
12:54 AM,28.0,24.1,85,30.09,10.0,Calm,Calm,-,N/A,,Clear,0,2002-03-29 05:54:00
1:54 AM,26.1,23.0,88,30.08,10.0,East,4.6,-,N/A,,Clear,90,2002-03-29 06:54:00
2:54 AM,27.0,21.9,81,30.05,10.0,Calm,Calm,-,N/A,,Clear,0,2002-03-29 07:54:00
3:54 AM,26.1,21.9,84,30.08,10.0,Calm,Calm,-,N/A,,Scattered Clouds,0,2002-03-29 08:54:00
4:54 AM,25.0,21.9,88,30.08,10.0,East,3.5,-,N/A,,Scattered Clouds,90,2002-03-29 09:54:00
5:54 AM,27.0,21.9,81,30.09,10.0,Calm,Calm,-,N/A,,Partly Cloudy,0,2002-03-29 10:54:00
6:54 AM,28.0,23.0,81,30.08,10.0,East,3.5,-,N/A,,Partly Cloudy,90,2002-03-29 11:54:00
7:54 AM,37.0,24.1,59,30.07,10.0,South,6.9,-,N/A,,Partly Cloudy,170,2002-03-29 12:54:00
8:54 AM,39.9,25.0,55,30.07,10.0,South,16.1,-,N/A,,Partly Cloudy,190,2002-03-29 13:54:00
9:54 AM,42.1,25.0,51,30.06,10.0,South,16.1,21.9,N/A,,Mostly Cloudy,180,2002-03-29 14:54:00
10:54 AM,45.0,25.0,46,30.01,10.0,South,17.3,21.9,N/A,,Scattered Clouds,180,2002-03-29 15:54:00
11:54 AM,46.9,27.0,46,30.02,10.0,South,16.1,-,N/A,,Mostly Cloudy,180,2002-03-29 16:54:00
12:54 PM,48.9,26.1,41,30.01,10.0,South,13.8,-,N/A,,Overcast,190,2002-03-29 17:54:00
1:54 PM,51.1,28.9,43,29.98,10.0,South,10.4,-,N/A,,Overcast,180,2002-03-29 18:54:00
2:54 PM,53.1,28.0,38,29.96,10.0,South,19.6,26.5,N/A,,Scattered Clouds,190,2002-03-29 19:54:00
3:54 PM,55.0,27.0,34,29.96,10.0,South,17.3,24.2,N/A,,Scattered Clouds,190,2002-03-29 20:54:00
4:54 PM,55.0,28.9,37,29.93,10.0,South,9.2,-,N/A,,Scattered Clouds,180,2002-03-29 21:54:00
5:54 PM,53.1,28.0,38,29.93,10.0,SSE,5.8,-,N/A,,Scattered Clouds,160,2002-03-29 22:54:00
6:54 PM,50.0,27.0,41,29.91,10.0,SE,6.9,-,N/A,,Partly Cloudy,140,2002-03-29 23:54:00
7:54 PM,48.0,27.0,44,29.85,10.0,ESE,11.5,-,N/A,,Partly Cloudy,120,2002-03-30 00:54:00
8:54 PM,48.9,27.0,43,29.84,10.0,SE,10.4,-,N/A,,Scattered Clouds,140,2002-03-30 01:54:00
9:54 PM,52.0,30.9,45,29.80,10.0,South,11.5,-,N/A,,Scattered Clouds,170,2002-03-30 02:54:00
10:54 PM,52.0,32.0,47,29.80,10.0,South,12.7,20.7,N/A,,Mostly Cloudy,170,2002-03-30 03:54:00
11:54 PM,52.0,32.0,47,29.75,10.0,SSE,12.7,25.3,N/A,,Scattered Clouds,160,2002-03-30 04:54:00